Вернуться в каталог

STARLINK-4563

АктивенСвязьVLEO
NORAD 53561·PAYLOAD·🇺🇸 United States

Запущен Aug 19, 2022 с Cape Canaveral Space Force Station

Loading…

Ближайшие Пролёты (ближайшие 24 часа)

TLE

СвежийSource: CelesTrak SupGP

Эпоха: Sep 14, 2026, 20:46 UTC

1 53561C 22101AL  26257.86576389  .00022337  00000+0  66045-3 0  2577
2 53561  53.1566 283.7084 0001228  96.9117 109.0600 15.34355073    19

Отслеживайте STARLINK-4563 в реальном времени с AllMySat

Download on the App Store